User: anonymous   Login
Location: Cronhütte
(48.9135°N, 9.6869°E)
Time: 03:42:06
(UTC+00:00)
Language:

Nadezhda 1 Rocket - Orbit

View from above orbital plane
View from above orbital plane
View from above satellite
View from above satellite

Ground track
Ground track

The orbit data is extracted from the following two-line orbital elements,

1 20104U 89050B   24194.58049204  .00000047  00000-0  31638-4 0  9997
2 20104  82.9551  54.9370 0044187 149.1885 211.1880 13.77482566759873
Epoch (UTC): 12 July 2024 13:55:54
Eccentricity: 0.0044187
inclination: 82.9551°
perigee height: 940 km
apogee height: 1005 km
right ascension of ascending node: 54.9370°
argument of perigee: 149.1885°
revolutions per day: 13.77482566
mean anomaly at epoch: 211.1880°
orbit number at epoch: 75987

The dashed part of the orbit path shows where the satellite is in the earth's shadow,  

DLR